Regional Weather Roundup
Issued by NWS

Home | Current Version | Previous Version | Graphics & Text | Print | Product List | Glossary On
Versions: 1 2 3 4 5 6 7 8 9 10 11 12 13 14 15 16 17 18 19 20 21 22 23 24 25 26 27 28 29 30 31 32 33 34 35 36 37 38 39 40 41 42 43 44 45 46 47 48 49 50
000
ASUS43 KIND 280259
RWRIN

WEATHER ROUNDUP FOR INDIANA
NATIONAL WEATHER SERVICE INDIANAPOLIS IN
1000 PM EST THU NOV 27 2014

NOTE: "FAIR" INDICATES FEW OR NO CLOUDS BELOW 12,000 FEET WITH NO
SIGNIFICANT WEATHER AND/OR OBSTRUCTIONS TO VISIBILITY.

* - STATION DOES NOT REPORT WEATHER SUCH AS PRECIPITATION OR FOG.

+ - STATION NOT QUALITY CONTROLLED BY THE NATIONAL WEATHER SERVICE.
    USE DATA WITH CAUTION...ESPECIALLY DEWPOINT AND RELATIVE
    HUMIDITY OBSERVATIONS.

INZ001>003-010>013-019-020-280400-
NORTHWEST INDIANA

CITY           SKY/WX    TMP DP  RH WIND       PRES   REMARKS
GARY /AIRPORT/ CLOUDY    23  10  58 NW9       30.41R WCI  13
VALPARAISO     NOT AVBL

$$

LMZ046-743>745-280400-
SOUTHERN LAKE MICHIGAN

STATION/POSITION TIME  TEMP WIND        PRES
                       AIR  DIR/SP/G
                 (UTC) (F)  (DEG/KT/KT) (MB)
MICHIGAN CITY    0200   24  280/  9/ 12   N/A

$$

INZ004-005-014>016-021>024-280400-
NORTH CENTRAL INDIANA

CITY           SKY/WX    TMP DP  RH WIND       PRES   REMARKS
GOSHEN         CLOUDY    23  18  81 W8        30.34S WCI  14
PERU/GRISSOM   CLOUDY    25  19  78 NW8       30.37S WCI  16
SOUTH BEND     MOCLDY    22  13  68 W8        30.36S WCI  12

$$

INZ006>009-017-018-025>027-280400-
NORTHEAST INDIANA

CITY           SKY/WX    TMP DP  RH WIND       PRES   REMARKS
ANGOLA *+      CLOUDY    23  18  80 N8        30.32R WCI  14
FORT WAYNE     CLOUDY    24  19  81 W13       30.36R WCI  12

$$

INZ028-029-035-036-043>045-051>053-280400-
WEST CENTRAL INDIANA

CITY           SKY/WX    TMP DP  RH WIND       PRES   REMARKS
GREENCASTLE +  FLURRIES  27  21  80 W7        30.41S WCI  19
LAFAYETTE      CLOUDY    23  17  78 W9        30.41S WCI  13
TERRE HAUTE    CLEAR     21  16  81 W6        30.45S WCI  13

$$

INZ030>032-037>040-046>048-054>057-064-065-280400-
CENTRAL INDIANA

CITY           SKY/WX    TMP DP  RH WIND       PRES   REMARKS
INDIANAPOLIS   FLURRIES  25  19  78 NW6       30.39S WCI  18
-EAGLE CREEK   CLOUDY    25  19  78 NW7       30.39S WCI  17
KOKOMO *+      CLOUDY    25  14  63 NW9       30.38F WCI  15
MT COMFORT *+  CLOUDY    27  16  63 NW10      30.39S WCI  17
SHELBYVILLE    CLOUDY    27  21  78 W8        30.39S WCI  19

$$

INZ033-034-041-042-049-050-058-059-280400-
EAST CENTRAL INDIANA

CITY           SKY/WX    TMP DP  RH WIND       PRES   REMARKS
MUNCIE         CLOUDY    25  17  72 MISG      30.37R

$$

INZ060-061-067>069-081>083-085>088-280400-
SOUTHWEST INDIANA

CITY           SKY/WX    TMP DP  RH WIND       PRES   REMARKS
EVANSVILLE     CLEAR     27  20  75 CALM      30.49S
HUNTINGBURG *+ CLOUDY    27  16  63 W9        30.47S WCI  17

$$

INZ062-063-066-070>080-084-089>092-280400-
SOUTH CENTRAL AND SOUTHEAST INDIANA

CITY           SKY/WX    TMP DP  RH WIND       PRES   REMARKS
BLOOMINGTON    MOCLDY    24  20  84 W7        30.41S WCI  16
SEYMOUR +      FLURRIES  30  23  74 W6        30.42  WCI  24

$$




USA.gov is the U.S. government's official web portal to all federal, state and local government web resources and services.